�������l�o���
Date,Time,MP-1(��Sv/h),MP-2(��Sv/h),MP-3(��Sv/h),MP-4(��Sv/h),MP-5(��Sv/h),MP-6(��Sv/h),MP-7(��Sv/h),MP-8(��Sv/h),����,����(m/s),���J
2020/03/16,00:00,0.684,0.983,0.657,1.186,0.855,0.398,0.690,0.655,��쓌,4.6,�L
2020/03/16,00:10,0.684,0.981,0.657,1.188,0.853,0.398,0.690,0.656,��쐼,3.3,�L
2020/03/16,00:20,0.684,0.982,0.657,1.186,0.850,0.399,0.690,0.657,��,3.3,��
2020/03/16,00:30,0.685,0.982,0.657,1.188,0.851,0.398,0.691,0.657,��,3.6,�L
2020/03/16,00:40,0.685,0.980,0.656,1.186,0.852,0.397,0.689,0.657,��,3.6,�L
2020/03/16,00:50,0.684,0.981,0.658,1.186,0.851,0.397,0.690,0.656,��쐼,3.0,�L
2020/03/16,01:00,0.684,0.979,0.658,1.187,0.851,0.398,0.693,0.658,���쐼,4.0,�L
2020/03/16,01:10,0.685,0.981,0.657,1.189,0.852,0.396,0.692,0.658,��,7.3,�L
2020/03/16,01:20,0.685,0.980,0.658,1.188,0.852,0.398,0.690,0.656,���k��,9.0,�L
2020/03/16,01:30,0.682,0.977,0.656,1.183,0.849,0.398,0.689,0.655,���k��,8.5,�L
2020/03/16,01:40,0.683,0.975,0.655,1.185,0.848,0.397,0.689,0.657,���k��,7.4,�L
2020/03/16,01:50,0.679,0.972,0.654,1.186,0.846,0.399,0.687,0.655,���k��,7.1,�L
2020/03/16,02:00,0.680,0.971,0.655,1.185,0.848,0.399,0.688,0.654,��,5.8,�L
2020/03/16,02:10,0.682,0.972,0.657,1.186,0.850,0.401,0.689,0.654,��,3.1,�L
2020/03/16,02:20,0.685,0.974,0.660,1.186,0.851,0.402,0.690,0.655,���k��,3.5,�L
2020/03/16,02:30,0.686,0.973,0.660,1.187,0.850,0.404,0.690,0.656,��,2.0,�L
2020/03/16,02:40,0.688,0.974,0.662,1.188,0.854,0.405,0.691,0.656,��,1.7,�L
2020/03/16,02:50,0.690,0.976,0.665,1.190,0.854,0.407,0.693,0.657,�k�k��,2.8,�L
2020/03/16,03:00,0.689,0.976,0.665,1.188,0.854,0.406,0.691,0.660,�k��,2.9,�L
2020/03/16,03:10,0.691,0.977,0.664,1.187,0.853,0.406,0.691,0.657,�k�k��,2.6,�L
2020/03/16,03:20,0.689,0.976,0.665,1.188,0.853,0.404,0.692,0.657,�k,1.7,�L
2020/03/16,03:30,0.686,0.974,0.660,1.186,0.852,0.404,0.691,0.655,�k,0.9,��
2020/03/16,03:40,0.685,0.971,0.659,1.184,0.847,0.400,0.690,0.656,-,CALM,�L
2020/03/16,03:50,0.684,0.971,0.658,1.185,0.849,0.401,0.690,0.657,-,CALM,�L
2020/03/16,04:00,0.682,0.968,0.657,1.183,0.846,0.400,0.688,0.654,-,CALM,��
2020/03/16,04:10,0.680,0.966,0.655,1.180,0.848,0.398,0.687,0.654,�k,0.6,��
2020/03/16,04:20,0.680,0.967,0.655,1.180,0.844,0.398,0.687,0.654,�k��,0.6,��
2020/03/16,04:30,0.679,0.967,0.653,1.180,0.844,0.397,0.687,0.654,-,CALM,��
2020/03/16,04:40,0.678,0.963,0.651,1.179,0.843,0.397,0.686,0.654,���쐼,0.6,��
2020/03/16,04:50,0.677,0.965,0.652,1.180,0.840,0.397,0.686,0.653,�k�k��,0.9,��
2020/03/16,05:00,0.678,0.962,0.651,1.177,0.842,0.396,0.686,0.653,�k�k��,1.2,��
2020/03/16,05:10,0.677,0.964,0.652,1.178,0.841,0.397,0.688,0.653,�k,1.4,��
2020/03/16,05:20,0.676,0.961,0.651,1.178,0.843,0.395,0.686,0.652,�k��,1.5,�L
2020/03/16,05:30,0.676,0.963,0.650,1.178,0.842,0.396,0.687,0.653,�k��,2.0,�L
2020/03/16,05:40,0.676,0.964,0.652,1.179,0.842,0.396,0.685,0.653,�k��,3.3,�L
2020/03/16,05:50,0.677,0.962,0.649,1.180,0.842,0.396,0.687,0.652,�k��,4.0,��
2020/03/16,06:00,0.677,0.964,0.650,1.178,0.841,0.395,0.686,0.653,�k��,3.9,��
2020/03/16,06:10,0.675,0.963,0.651,1.178,0.843,0.395,0.686,0.653,�k��,3.8,��
2020/03/16,06:20,0.676,0.963,0.649,1.180,0.843,0.396,0.686,0.653,�k��,3.7,��
2020/03/16,06:30,0.676,0.962,0.649,1.178,0.843,0.395,0.684,0.654,�k��,3.3,��
2020/03/16,06:40,0.676,0.962,0.651,1.178,0.843,0.393,0.686,0.653,�k�k��,3.9,��
2020/03/16,06:50,0.675,0.963,0.650,1.178,0.841,0.394,0.686,0.653,�k��,3.5,��
2020/03/16,07:00,0.674,0.965,0.649,1.179,0.843,0.395,0.686,0.654,�k��,4.0,�L
2020/03/16,07:10,0.676,0.962,0.649,1.178,0.839,0.393,0.686,0.654,�k��,4.1,��
2020/03/16,07:20,0.676,0.963,0.648,1.180,0.843,0.393,0.686,0.653,�k��,4.3,��
2020/03/16,07:30,0.675,0.961,0.650,1.181,0.842,0.394,0.686,0.652,�k��,5.0,��
2020/03/16,07:40,0.675,0.963,0.650,1.181,0.843,0.394,0.687,0.653,�k��,4.7,��
2020/03/16,07:50,0.676,0.965,0.650,1.180,0.844,0.394,0.687,0.654,�k�k��,4.2,��
2020/03/16,08:00,0.677,0.965,0.650,1.179,0.844,0.395,0.689,0.654,�k,4.1,��
2020/03/16,08:10,0.677,0.966,0.649,1.178,0.845,0.393,0.689,0.654,�k,4.0,��
2020/03/16,08:20,0.679,0.965,0.651,1.180,0.842,0.395,0.688,0.656,�k�k��,3.6,��
2020/03/16,08:30,0.678,0.964,0.650,1.180,0.843,0.395,0.690,0.655,�k�k��,3.3,��
2020/03/16,08:40,0.679,0.962,0.649,1.182,0.845,0.395,0.690,0.655,�k,3.3,��
2020/03/16,08:50,0.679,0.964,0.652,1.180,0.847,0.394,0.688,0.654,�k�k��,3.3,��
2020/03/16,09:00,0.680,0.965,0.652,1.179,0.845,0.394,0.686,0.655,�k�k��,2.9,��
2020/03/16,09:10,0.680,0.965,0.652,1.182,0.844,0.396,0.688,0.656,�k�k��,2.5,��
2020/03/16,09:20,0.681,0.962,0.653,1.182,0.844,0.396,0.688,0.655,�k�k��,2.0,��
2020/03/16,09:30,0.682,0.962,0.654,1.181,0.847,0.396,0.687,0.655,���k��,2.0,��
2020/03/16,09:40,0.681,0.962,0.653,1.183,0.847,0.395,0.687,0.657,�k��,2.5,��
2020/03/16,09:50,0.683,0.962,0.653,1.186,0.850,0.394,0.685,0.655,�k��,2.5,��
2020/03/16,10:00,0.681,0.961,0.652,1.181,0.849,0.395,0.688,0.653,���k��,3.1,��
2020/03/16,10:10,0.680,0.961,0.653,1.181,0.848,0.395,0.687,0.652,�k��,2.0,��
2020/03/16,10:20,0.682,0.963,0.653,1.182,0.847,0.396,0.688,0.654,���k��,1.2,��
2020/03/16,10:30,0.683,0.964,0.653,1.182,0.848,0.396,0.688,0.654,��,2.2,��
2020/03/16,10:40,0.681,0.964,0.654,1.181,0.849,0.396,0.686,0.656,��,1.9,��
2020/03/16,10:50,0.680,0.966,0.655,1.183,0.850,0.395,0.689,0.655,���k��,1.8,��
2020/03/16,11:00,0.681,0.969,0.653,1.183,0.850,0.396,0.689,0.656,���쓌,2.2,��
2020/03/16,11:10,0.682,0.966,0.655,1.184,0.851,0.397,0.689,0.656,��,2.3,��
2020/03/16,11:20,0.682,0.964,0.654,1.184,0.850,0.397,0.689,0.655,��,2.3,��
2020/03/16,11:30,0.683,0.968,0.654,1.183,0.848,0.397,0.690,0.656,��,2.3,��
2020/03/16,11:40,0.684,0.965,0.655,1.184,0.849,0.396,0.688,0.655,��,3.0,��
2020/03/16,11:50,0.685,0.966,0.657,1.183,0.850,0.397,0.687,0.655,���쓌,2.0,�L
2020/03/16,12:00,0.683,0.970,0.657,1.184,0.850,0.396,0.687,0.654,���k��,2.8,�L
2020/03/16,12:10,0.683,0.970,0.654,1.187,0.850,0.395,0.689,0.653,�k��,2.8,�L
2020/03/16,12:20,0.683,0.974,0.656,1.184,0.849,0.399,0.688,0.654,�k�k��,2.6,�L
2020/03/16,12:30,0.683,0.974,0.658,1.184,0.851,0.396,0.688,0.654,�k�k��,2.0,��
2020/03/16,12:40,0.685,0.974,0.656,1.184,0.851,0.397,0.689,0.656,���k��,3.9,��
2020/03/16,12:50,0.686,0.974,0.657,1.183,0.852,0.398,0.688,0.656,�k��,7.2,��
2020/03/16,13:00,0.683,0.971,0.657,1.184,0.851,0.396,0.688,0.657,�k��,8.2,��
2020/03/16,13:10,0.683,0.974,0.657,1.186,0.851,0.397,0.690,0.656,�k��,8.9,��
2020/03/16,13:20,0.685,0.971,0.655,1.186,0.851,0.398,0.690,0.657,�k��,10.3,��
2020/03/16,13:30,0.685,0.969,0.654,1.184,0.851,0.398,0.690,0.658,�k��,11.1,��
2020/03/16,13:40,0.685,0.968,0.658,1.187,0.851,0.396,0.690,0.657,�k�k��,10.9,��
2020/03/16,13:50,0.685,0.970,0.654,1.189,0.848,0.396,0.688,0.658,�k��,13.8,��
2020/03/16,14:00,0.683,0.971,0.656,1.186,0.851,0.396,0.691,0.654,�k��,8.6,��
2020/03/16,14:10,0.684,0.970,0.656,1.186,0.852,0.395,0.688,0.657,�k��,10.3,��
2020/03/16,14:20,0.683,0.972,0.657,1.186,0.853,0.396,0.690,0.654,�k��,11.4,��
2020/03/16,14:30,0.682,0.971,0.655,1.188,0.853,0.396,0.690,0.655,�k��,9.1,��
2020/03/16,14:40,0.684,0.974,0.655,1.189,0.850,0.398,0.690,0.655,�k��,13.9,��
2020/03/16,14:50,0.683,0.974,0.656,1.188,0.854,0.398,0.689,0.656,�k��,12.1,��
2020/03/16,15:00,0.682,0.973,0.657,1.187,0.851,0.398,0.689,0.655,�k��,13.8,��
2020/03/16,15:10,0.684,0.974,0.657,1.188,0.852,0.398,0.690,0.654,�k��,14.1,��
2020/03/16,15:20,0.683,0.975,0.658,1.189,0.852,0.398,0.689,0.654,�k��,10.5,��
2020/03/16,15:30,0.682,0.975,0.658,1.190,0.851,0.396,0.690,0.655,�k��,10.5,�L
2020/03/16,15:40,0.684,0.977,0.656,1.188,0.853,0.396,0.691,0.654,���k��,13.9,��
2020/03/16,15:50,0.683,0.977,0.656,1.190,0.851,0.397,0.689,0.655,���k��,10.3,��
2020/03/16,16:00,0.684,0.978,0.656,1.190,0.853,0.396,0.689,0.656,���k��,11.7,��
2020/03/16,16:10,0.683,0.980,0.658,1.189,0.852,0.397,0.690,0.656,�k��,10.9,�L
2020/03/16,16:20,0.683,0.979,0.658,1.189,0.852,0.396,0.691,0.657,�k�k��,11.7,��
2020/03/16,16:30,0.682,0.980,0.659,1.192,0.853,0.396,0.689,0.657,�k��,10.9,�L
2020/03/16,16:40,0.683,0.980,0.657,1.192,0.853,0.396,0.690,0.658,�k��,10.0,��
2020/03/16,16:50,0.684,0.981,0.656,1.190,0.852,0.397,0.690,0.658,�k��,9.6,��
2020/03/16,17:00,0.683,0.980,0.657,1.189,0.854,0.397,0.690,0.657,�k��,9.1,��
2020/03/16,17:10,0.684,0.981,0.657,1.190,0.855,0.395,0.691,0.658,�k��,10.2,��
2020/03/16,17:20,0.682,0.980,0.658,1.190,0.854,0.396,0.690,0.657,���k��,9.6,��
2020/03/16,17:30,0.683,0.980,0.660,1.189,0.854,0.396,0.692,0.658,�k��,10.3,��
2020/03/16,17:40,0.682,0.981,0.658,1.191,0.853,0.397,0.692,0.656,�k��,13.3,��
2020/03/16,17:50,0.685,0.982,0.658,1.191,0.853,0.395,0.691,0.656,�k��,10.3,��
2020/03/16,18:00,0.683,0.981,0.657,1.189,0.857,0.395,0.692,0.659,�k��,12.8,��
2020/03/16,18:10,0.681,0.980,0.656,1.191,0.855,0.396,0.690,0.656,�k��,11.1,��
2020/03/16,18:20,0.682,0.979,0.658,1.189,0.855,0.394,0.692,0.656,�k��,8.2,��
2020/03/16,18:30,0.683,0.981,0.657,1.190,0.856,0.394,0.691,0.658,�k��,8.5,��
2020/03/16,18:40,0.683,0.982,0.656,1.190,0.855,0.396,0.692,0.657,�k��,10.2,��
2020/03/16,18:50,0.683,0.980,0.656,1.191,0.856,0.393,0.690,0.657,�k��,8.6,��
2020/03/16,19:00,0.681,0.979,0.657,1.190,0.854,0.395,0.691,0.656,�k��,8.1,��
2020/03/16,19:10,0.683,0.979,0.656,1.189,0.854,0.395,0.691,0.658,�k��,10.5,��
2020/03/16,19:20,0.680,0.980,0.656,1.193,0.854,0.393,0.690,0.656,�k��,10.9,��
2020/03/16,19:30,0.681,0.980,0.656,1.192,0.857,0.393,0.690,0.657,�k��,11.1,��
2020/03/16,19:40,0.679,0.981,0.656,1.191,0.854,0.394,0.690,0.656,�k��,11.1,��
2020/03/16,19:50,0.681,0.980,0.657,1.193,0.857,0.395,0.692,0.657,�k��,9.4,��
2020/03/16,20:00,0.680,0.980,0.656,1.190,0.857,0.393,0.691,0.657,�k��,8.6,��
2020/03/16,20:10,0.680,0.978,0.657,1.191,0.855,0.392,0.691,0.657,�k��,10.2,��
2020/03/16,20:20,0.679,0.982,0.656,1.193,0.855,0.394,0.691,0.656,�k��,9.8,��
2020/03/16,20:30,0.680,0.982,0.656,1.193,0.854,0.393,0.691,0.656,�k��,9.9,��
2020/03/16,20:40,0.680,0.983,0.657,1.190,0.856,0.393,0.691,0.657,�k��,10.5,��
2020/03/16,20:50,0.680,0.982,0.656,1.189,0.854,0.394,0.691,0.657,�k�k��,8.4,��
2020/03/16,21:00,0.681,0.980,0.656,1.190,0.855,0.394,0.690,0.657,�k�k��,7.0,��
2020/03/16,21:10,0.682,0.980,0.657,1.192,0.856,0.392,0.691,0.656,�k�k��,7.6,��
2020/03/16,21:20,0.681,0.980,0.656,1.191,0.855,0.394,0.691,0.656,�k�k��,8.2,��
2020/03/16,21:30,0.680,0.980,0.657,1.194,0.854,0.394,0.691,0.655,�k�k��,8.4,��
2020/03/16,21:40,0.680,0.982,0.657,1.194,0.857,0.396,0.691,0.658,�k�k��,8.7,��
2020/03/16,21:50,0.681,0.980,0.657,1.193,0.855,0.393,0.691,0.656,�k�k��,9.1,��
2020/03/16,22:00,0.679,0.980,0.658,1.190,0.856,0.393,0.691,0.658,�k�k��,8.7,��
2020/03/16,22:10,0.680,0.979,0.655,1.189,0.853,0.394,0.689,0.659,�k�k��,7.5,��
2020/03/16,22:20,0.680,0.980,0.657,1.194,0.858,0.394,0.690,0.657,�k�k��,6.8,��
2020/03/16,22:30,0.682,0.980,0.656,1.193,0.857,0.393,0.691,0.657,�k�k��,6.3,��
2020/03/16,22:40,0.681,0.980,0.658,1.194,0.856,0.395,0.690,0.656,�k�k��,6.8,��
2020/03/16,22:50,0.681,0.981,0.659,1.193,0.854,0.395,0.691,0.656,�k�k��,6.0,��
2020/03/16,23:00,0.682,0.979,0.658,1.191,0.854,0.394,0.690,0.657,�k�k��,7.7,��
2020/03/16,23:10,0.681,0.981,0.659,1.191,0.854,0.393,0.690,0.658,�k,6.8,��
2020/03/16,23:20,0.680,0.980,0.656,1.192,0.854,0.393,0.691,0.658,�k�k��,5.9,��
2020/03/16,23:30,0.682,0.981,0.658,1.192,0.855,0.394,0.689,0.658,�k�k��,7.1,��
2020/03/16,23:40,0.681,0.979,0.658,1.191,0.856,0.395,0.689,0.657,�k�k��,6.6,��
2020/03/16,23:50,0.681,0.983,0.656,1.193,0.854,0.394,0.691,0.657,�k�k��,6.0,��
